Regional Weather Roundup
Issued by NWS Little Rock, AR

Home | Current Version | Previous Version | Graphics & Text | Print | Product List | Glossary On
Versions: 1 2 3 4 5 6 7 8 9 10 11 12 13 14 15 16 17 18 19 20 21 22 23 24 25 26 27 28 29 30 31 32 33 34 35 36 37 38 39 40 41 42 43 44 45 46 47
000
ASUS44 KLZK 041905
RWRLZK

WEATHER ROUNDUP FOR ARKANSAS
NATIONAL WEATHER SERVICE LITTLE ROCK AR
200 PM CDT SAT JUL 04 2015

NOTE: "FAIR" INDICATES FEW OR NO CLOUDS BELOW 12,000 FEET WITH NO
SIGNIFICANT WEATHER AND/OR OBSTRUCTIONS TO VISIBILITY.

ARZ001-003-010-029-042000-
NORTHWEST ARKANSAS

CITY           SKY/WX    TMP DP  RH WIND       PRES   REMARKS
FAYETTEVILLE   SUNNY     84  69  60 VRB3      29.98F HX  88
FORT SMITH     SUNNY     85  69  58 VRB3      29.95F HX  89
HARRISON       CLOUDY    79  68  69 NE6       30.01F
BENTONVILLE    MOSUNNY   82  64  54 E6        30.00F
ROGERS         PTSUNNY   83  67  58 VRB5      30.00F HX  85
SILOAM SPGS    SUNNY     82  66  57 CALM        N/A  HX  85
HIGHFILL       MOSUNNY   84  68  58 CALM      29.99F HX  87
SPRINGDALE     MOSUNNY   82  70  65 E7        30.01F HX  86
$$

ARZ004-005-016-042000-
NORTH CENTRAL ARKANSAS

CITY           SKY/WX    TMP DP  RH WIND       PRES   REMARKS
BATESVILLE     CLOUDY    79  72  78 CALM      29.99F
FLIPPIN          N/A     82  68  61 SE6       29.97F HX  85
MTN HOME       CLOUDY    79  70  74 E6        29.99F
$$

ARZ040-041-042000-
WEST CENTRAL ARKANSAS

CITY           SKY/WX    TMP DP  RH WIND       PRES   REMARKS
MENA           MOSUNNY   82  73  74 S3        29.99F HX  88
MOUNT IDA      PTSUNNY   82  72  71 CALM      29.96F HX  87
$$

ARZ009-017-025-026-028-042000-
NORTHEAST ARKANSAS

CITY           SKY/WX    TMP DP  RH WIND       PRES   REMARKS
JONESBORO      CLOUDY    79  70  74 VRB3      29.97F
NEWPORT        CLOUDY    80  71  74 CALM      29.99F
WALNUT RIDGE   CLOUDY    79  70  73 CALM      29.98F
BLYTHEVILLE    CLOUDY    79  72  79 SW6       29.98F
$$

ARZ022-023-033-042-044-042000-
CENTRAL ARKANSAS

CITY           SKY/WX    TMP DP  RH WIND       PRES   REMARKS
LITTLE ROCK    MOSUNNY   82  68  62 VRB6      29.97F HX  85
N LITTLE ROCK  MOSUNNY   79  71  76 SW6       29.97F
JACKSONVILLE   MOSUNNY   82  69  66 W7        29.96F HX  85
SEARCY         CLOUDY    80  72  76 S3        29.99F
HOT SPRINGS    MOSUNNY   82  71  69 VRB6      29.97F HX  86
RUSSELLVILLE   PTSUNNY   83  71  67 SE5       29.96F HX  87
CLINTON        FAIR      82  72  69 CALM      29.98F HX  87
$$

ARZ036-042000-
EAST ARKANSAS

CITY           SKY/WX    TMP DP  RH WIND       PRES   REMARKS
WEST MEMPHIS   CLOUDY    75  71  87 S9        29.98F
$$

ARZ050-053-066-070-073-042000-
SOUTHWEST ARKANSAS

CITY           SKY/WX    TMP DP  RH WIND       PRES   REMARKS
ARKADELPHIA    FAIR      79  72  79 S9        29.99F
CAMDEN         CLOUDY    68  66  94 MISG      30.00F
TEXARKANA      LGT RAIN  71  70  96 SE7       30.01F
EL DORADO      TSTM      70  67  90 SW6       30.04S VSB 1
DE QUEEN       CLOUDY    79  72  79 SE8       29.98S
$$

ARZ056-057-069-042000-
SOUTHEAST ARKANSAS

CITY           SKY/WX    TMP DP  RH WIND       PRES   REMARKS
PINE BLUFF     CLOUDY    75  68  78 SW8       29.99F
STUTTGART      CLOUDY    79  70  73 MISG      29.97F
MONTICELLO     CLOUDY    72  70  93 NW6       29.99F

$$





USA.gov is the U.S. government's official web portal to all federal, state and local government web resources and services.